Weather in Suday

Russia / Kostroma Oblast     58°58′42″N   43°07′48″E
temp.,
°C
wind,
m/s
gust,
m/s
humid.,
%
clouds,
%
prec.,
mm/h
press.,
hPa
HPBL,
m
26 june, sun
sun2600:00+13nne26680 0.0 1020107
03:00+10ne22730 0.0 102127
06:00+14ne24620 0.0 1022182
09:00+19nne23405 0.0 1022843
12:00+23nnw233382 0.0 10211369
15:00+24nw24360 0.0 10201576
18:00+24nw25520 0.0 10191233
21:00+18ssw36757 0.0 101799
27 june, mon
mon2700:00+16wsw399267 1.1 1016162
03:00+17w311975 4.7 1016287
06:00+19nw39945 0.1 1015350
09:00+23n586016 0.1 1016974
12:00+23n685689 0.0 10181575
15:00+21n563898 0.0 10191412
18:00+19n364889 0.0 10191412
21:00+12nne25710 0.0 102082
28 june, tue
tue2800:00+9n27750 0.0 1021136
03:00+8nne39810 0.0 1023250
06:00+9nne47660 0.0 1025576
09:00+13nne46475 0.0 10251121
12:00+16n46371 0.0 10241533
15:00+18n46345 0.0 10241787
18:00+17nne35440 0.0 10241750
21:00+11n22695 0.0 102530
29 june, wed
wed2900:00+8nnw22740 0.0 102617
03:00+7nnw22780 0.0 102627
06:00+11n24620 0.0 1026197
09:00+17n35410 0.0 10251190
12:00+20n34327 0.0 10241798
15:00+21nnw353282 0.0 10221892
18:00+20nnw3644100 0.0 1021958
21:00+13nw237165 0.0 102146
30 june, thu
thu3000:00+12nw276996 0.0 1020123
03:00+10wnw3975100 0.0 1019157
06:00+14nw3116475 0.0 1018456
09:00+16nnw41071100 0.1 1018796
12:00+19nnw58555 0.0 10171169
15:00+23n58365 0.0 10162291
18:00+20nne48412 0.0 10161465
21:00+13ne22705 0.0 101840